Location: ???????
(55.3754°N, 39.3545°E)
Time: 22:30:16
(UTC+00:00)

Cosmos 1674 Rocket - Pass Details

Date: 14 April 2026
Orbit: 596 x 622 km, 82.5° (Epoch: 13 May)

Event Time Altitude Azimuth Distance (km) Brightness Sun altitude
Rises 18:40:19 0° 346° (NNW) 2,858 8.1 -16.7°
Reaches altitude 10° 18:42:32 10° 344° (NNW) 1,952 7.1 -16.9°
Maximum altitude 18:46:49 66° 262° (W) 660 3.8 -17.3°
Enters shadow 18:49:14 25° 186° (S) 1,230 4.7 -17.5°
